Louisville, KY

5:46 PM EDT on August 29, 2016 (GMT -0400)
Louisville International-Standiford

Weather History for KSDF - December, 2012

Change the Weather History Date:

Saturday, December 8, 2012

  Actual Average Record
Temperature  
Mean Temperature 55 °F 40 °F  
Max Temperature 60 °F 48 °F 68 °F (1980)
Min Temperature 50 °F 32 °F -1 °F (1917)
Degree Days  
Heating Degree Days 10 25  
Month to date heating degree days 78 193  
Since 1 July heating degree days 932 928  
Cooling Degree Days 0 0  
Month to date cooling degree days 4 0  
Year to date cooling degree days 1952 1613  
Growing Degree Days 5 (Base 50)    
Moisture  
Dew Point 53 °F    
Average Humidity 90    
Maximum Humidity 100    
Minimum Humidity 80    
Precipitation  
Precipitation 0.76 in 0.13 in 1.73 in (1972)
Month to date precipitation 3.12 1.00  
Year to date precipitation 41.66 42.08  
Snow  
Snow 0.00 in 0.10 in 15.00 in (1917)
Month to date snowfall 0.0 0.4  
Since 1 July snowfall 0.0 0.6  
Snow Depth 0.00 in    
Sea Level Pressure  
Sea Level Pressure 29.90 in    
Wind  
Wind Speed 6 mph (West)    
Max Wind Speed 16 mph    
Max Gust Speed 18 mph    
Visibility 6 miles    
Events Rain    
T = Trace of Precipitation, MM = Missing Value Source: NWS Daily Summary

Daily Weather History Graph

Daily Weather History Graph

Search for Another Location

Airport or City:

Trip Planner

Search our weather history database for the weather conditions in past years. The results will help you decide how hot, cold, wet, or windy it might be!

Date:

Astronomy

Dec. 08, 2012 Rise Set
Actual Time 7:47 AM EST 5:22 PM EST
Civil Twilight 7:17 AM EST 5:52 PM EST
Nautical Twilight 6:44 AM EST 6:25 PM EST
Astronomical Twilight 6:12 AM EST 6:57 PM EST
Moon 2:15 AM EST (12/8) 1:49 PM EST (12/8)
Length of Visible Light 10h 34m
Length of Day
9h 35m
Waning Crescent, 28% of the Moon is Illuminated
Dec 8
Waning Crescent
Dec 13
New
Dec 20
First Quarter
Dec 28
Full
Jan 4
Last Quarter

Hourly Weather History & Observations

Time (EST) Temp. Dew Point Humidity Pressure Visibility Wind Dir Wind Speed Gust Speed Precip Events Conditions
12:29 AM 57.2 °F 57.2 °F 100% 29.87 in 2.5 mi SSW 5.8 mph - 0.04 in Rain Heavy Rain
12:37 AM 57.2 °F 55.4 °F 94% 29.87 in 4.0 mi SSW 6.9 mph - 0.07 in Rain Light Rain
12:56 AM 57.9 °F 55.9 °F 93% 29.86 in 6.0 mi SSW 6.9 mph - 0.07 in Rain Light Rain
12:59 AM 57.2 °F 55.4 °F 94% 29.86 in 6.0 mi SSW 6.9 mph - 0.00 in Rain Light Rain
1:17 AM 57.2 °F 55.4 °F 94% 29.86 in 7.0 mi SSW 5.8 mph - 0.00 in   Overcast
1:33 AM 57.2 °F 55.4 °F 94% 29.86 in 7.0 mi SSW 8.1 mph - 0.00 in Rain Light Rain
1:56 AM 57.9 °F 55.9 °F 93% 29.86 in 7.0 mi SSW 8.1 mph - 0.00 in   Overcast
2:06 AM 57.2 °F 55.4 °F 94% 29.86 in 7.0 mi SSW 6.9 mph - N/A   Overcast
2:56 AM 57.9 °F 55.9 °F 93% 29.86 in 5.0 mi SW 5.8 mph - 0.00 in Rain Light Rain
3:10 AM 57.2 °F 55.4 °F 94% 29.86 in 6.0 mi SW 5.8 mph - 0.01 in Rain Light Rain
3:13 AM 57.2 °F 55.4 °F 94% 29.85 in 5.0 mi SW 3.5 mph - 0.01 in Rain Light Rain
3:56 AM 57.9 °F 55.9 °F 93% 29.84 in 3.0 mi SSE 5.8 mph - 0.02 in Rain Light Rain
4:24 AM 57.2 °F 55.4 °F 94% 29.85 in 2.0 mi South 5.8 mph - 0.04 in Rain Heavy Rain
4:36 AM 57.2 °F 57.2 °F 100% 29.84 in 2.0 mi South 5.8 mph - 0.10 in Rain Heavy Rain
4:45 AM 57.2 °F 57.2 °F 100% 29.84 in 3.0 mi South 5.8 mph - 0.14 in Rain Light Rain
4:56 AM 57.9 °F 57.0 °F 97% 29.84 in 5.0 mi SSW 5.8 mph - 0.15 in Rain Light Rain
5:06 AM 57.2 °F 57.2 °F 100% 29.83 in 2.5 mi South 6.9 mph - 0.01 in Rain Rain
5:11 AM 57.2 °F 57.2 °F 100% 29.83 in 2.5 mi South 5.8 mph - 0.03 in Rain Rain
5:56 AM 57.9 °F 57.0 °F 97% 29.85 in 2.5 mi WSW 6.9 mph - 0.16 in Rain Rain
6:05 AM 57.2 °F 57.2 °F 100% 29.85 in 5.0 mi SW 5.8 mph - 0.02 in Rain Light Rain
6:16 AM 57.2 °F 55.4 °F 94% 29.85 in 10.0 mi WSW 6.9 mph - 0.02 in   Overcast
6:21 AM 57.2 °F 55.4 °F 94% 29.85 in 10.0 mi WSW 6.9 mph - 0.02 in   Overcast
6:56 AM 57.9 °F 55.9 °F 93% 29.85 in 10.0 mi SW 4.6 mph - 0.02 in   Overcast
7:10 AM 57.2 °F 55.4 °F 94% 29.86 in 10.0 mi Calm Calm - N/A   Overcast
7:13 AM 57.2 °F 55.4 °F 94% 29.86 in 10.0 mi WNW 4.6 mph - N/A   Overcast
7:18 AM 57.2 °F 55.4 °F 94% 29.86 in 2.5 mi WNW 8.1 mph - 0.00 in Rain Rain
7:20 AM 57.2 °F 55.4 °F 94% 29.86 in 1.0 mi WNW 5.8 mph - 0.00 in Rain Heavy Rain
7:26 AM 57.2 °F 55.4 °F 94% 29.86 in 3.0 mi West 5.8 mph - 0.12 in Rain Rain
7:56 AM 57.0 °F 55.9 °F 96% 29.86 in 8.0 mi WSW 3.5 mph - 0.12 in   Overcast
8:03 AM 57.2 °F 55.4 °F 94% 29.87 in 8.0 mi WSW 3.5 mph - N/A   Overcast
8:56 AM 57.0 °F 55.9 °F 96% 29.88 in 1.2 mi West 5.8 mph - 0.03 in Rain Rain
9:02 AM 57.2 °F 55.4 °F 94% 29.88 in 2.0 mi West 5.8 mph - 0.09 in Rain Heavy Rain
9:23 AM 57.2 °F 55.4 °F 94% 29.89 in 1.2 mi WSW 4.6 mph - 0.12 in Rain Rain
9:33 AM 57.2 °F 55.4 °F 94% 29.89 in 2.0 mi WSW 3.5 mph - 0.18 in Rain Light Rain
9:41 AM 57.2 °F 55.4 °F 94% 29.90 in 4.0 mi WSW 3.5 mph - 0.18 in   Overcast
9:56 AM 57.0 °F 55.9 °F 96% 29.90 in 4.0 mi West 4.6 mph - 0.18 in   Overcast
10:12 AM 55.4 °F 53.6 °F 94% 29.91 in 7.0 mi NNW 10.4 mph 18.4 mph 0.00 in Rain Light Rain
10:27 AM 55.4 °F 53.6 °F 94% 29.91 in 8.0 mi North 6.9 mph - 0.00 in   Overcast
10:56 AM 55.9 °F 52.0 °F 87% 29.91 in 8.0 mi North 3.5 mph - 0.00 in   Overcast
11:15 AM 55.4 °F 51.8 °F 88% 29.91 in 9.0 mi NNE 3.5 mph - N/A   Overcast
11:56 AM 57.0 °F 51.1 °F 81% 29.91 in 7.0 mi Calm Calm - 0.00 in Rain Light Rain
12:56 PM 59.0 °F 50.0 °F 72% 29.90 in 10.0 mi Calm Calm - 0.00 in   Mostly Cloudy
1:56 PM 57.9 °F 51.1 °F 78% 29.91 in 10.0 mi WNW 4.6 mph - N/A   Overcast
2:17 PM 57.2 °F 51.8 °F 82% 29.92 in 10.0 mi West 5.8 mph - N/A   Overcast
2:44 PM 57.2 °F 50.0 °F 77% 29.91 in 10.0 mi WNW 6.9 mph - N/A   Overcast
2:56 PM 57.9 °F 51.1 °F 78% 29.91 in 10.0 mi NW 5.8 mph - N/A   Overcast
3:56 PM 57.0 °F 51.1 °F 81% 29.92 in 10.0 mi NNW 8.1 mph - N/A   Overcast
4:56 PM 55.9 °F 50.0 °F 80% 29.94 in 10.0 mi North 6.9 mph - N/A   Overcast
5:56 PM 54.0 °F 48.9 °F 83% 29.96 in 10.0 mi North 10.4 mph - N/A   Overcast
6:56 PM 53.1 °F 48.9 °F 86% 29.97 in 10.0 mi North 11.5 mph - N/A   Overcast
7:52 PM 51.8 °F 48.2 °F 88% 29.98 in 9.0 mi North 12.7 mph - N/A   Overcast
7:56 PM 51.1 °F 48.0 °F 89% 29.99 in 9.0 mi NNE 10.4 mph - N/A   Overcast
8:01 PM 51.8 °F 48.2 °F 88% 29.99 in 9.0 mi NNE 9.2 mph - N/A   Overcast
8:56 PM 51.8 °F 46.4 °F 82% 29.99 in 8.0 mi North 9.2 mph - N/A   Overcast
9:47 PM 50.0 °F 48.2 °F 94% 29.99 in 6.0 mi North 5.8 mph - 0.00 in   Overcast
9:56 PM 50.0 °F 48.0 °F 93% 29.99 in 5.0 mi NNE 4.6 mph - 0.00 in Rain Light Rain
10:03 PM 50.0 °F 48.2 °F 94% 29.99 in 5.0 mi NNE 4.6 mph - N/A Rain Light Rain
10:42 PM 50.0 °F 48.2 °F 94% 29.99 in 6.0 mi ENE 3.5 mph - 0.00 in   Overcast
10:51 PM 51.8 °F 48.2 °F 88% 30.00 in 5.0 mi North 3.5 mph - 0.00 in Rain Light Rain
10:56 PM 50.0 °F 48.0 °F 93% 29.99 in 4.0 mi NE 3.5 mph - 0.01 in Rain Rain
11:56 PM 51.1 °F 48.0 °F 89% 30.00 in 6.0 mi NNE 4.6 mph - 0.00 in   Overcast